Weather History for Biloxi, MS

Change the Weather History Date:

Monday, January 21, 2013

  Actual Average Record
Temperature  
Mean Temperature 54 °F -  
Max Temperature 66 °F 58 °F 76 °F (1993)
Min Temperature 42 °F 41 °F 21 °F (1984)
Degree Days  
Heating Degree Days 11    
Growing Degree Days 4 (Base 50)    
Moisture  
Dew Point 46 °F    
Average Humidity 93    
Maximum Humidity 100    
Minimum Humidity 40    
Precipitation  
Precipitation 0.00 in - - ()
Sea Level Pressure  
Sea Level Pressure 30.16 in    
Wind  
Wind Speed 1 mph (North)    
Max Wind Speed 13 mph    
Max Gust Speed -    
Visibility 3 miles    
Events Fog    
Averages and records for this station are not official NWS values.
T = Trace of Precipitation, MM = Missing Value Source: NWS Daily Summary

Daily Weather History Graph

Daily Weather History Graph

Search for Another Location

Airport:

Trip Planner

Search our weather history database for the weather conditions in past years. The results will help you decide how hot, cold, wet, or windy it might be!

Date:

Astronomy

Jan. 21, 2013 Rise Set
Actual Time 6:51 AM CST 5:22 PM CST
Civil Twilight 6:25 AM CST 5:48 PM CST
Nautical Twilight 5:56 AM CST 6:17 PM CST
Astronomical Twilight 5:28 AM CST 6:46 PM CST
Moon 1:04 PM CST (1/21) 2:19 AM CST (1/21)
Length of Visible Light 11h 22m
Length of Day
10h 31m
Waxing Gibbous, 75% of the Moon is Illuminated
Jan 21
Waxing Gibbous
Jan 26
Full
Feb 3
Last Quarter
Feb 10
New
Feb 17
First Quarter

Hourly Weather History & Observations

Time (CST) Temp. Windchill Dew Point Humidity Pressure Visibility Wind Dir Wind Speed Gust Speed Precip Events Conditions
12:00 AM 48.2 °F - 46.4 °F 93% 30.17 in 0.2 mi Calm Calm - N/A Fog Fog
12:17 AM 48.2 °F - 48.2 °F 100% 30.17 in 0.2 mi Calm Calm - N/A Fog Fog
12:18 AM 48.2 °F - 48.2 °F 100% 30.17 in 0.5 mi Calm Calm - N/A Fog Fog
12:22 AM 48.2 °F - 48.2 °F 100% 30.17 in 0.8 mi Calm Calm - N/A   Clear
12:26 AM 48.2 °F - 48.2 °F 100% 30.16 in 1.0 mi Calm Calm - N/A   Clear
12:27 AM 48.2 °F - 46.4 °F 93% 30.16 in 1.0 mi Calm Calm - N/A   Clear
12:28 AM 48.2 °F - 46.4 °F 93% 30.16 in 1.0 mi Calm Calm - N/A   Clear
12:29 AM 48.2 °F - 46.4 °F 93% 30.16 in 1.2 mi Calm Calm - N/A   Clear
12:30 AM 48.2 °F - 46.4 °F 93% 30.16 in 1.5 mi Calm Calm - N/A   Clear
12:32 AM 46.4 °F - 46.4 °F 100% 30.16 in 1.8 mi Calm Calm - N/A   Clear
12:34 AM 46.4 °F - 46.4 °F 100% 30.16 in 2.0 mi Calm Calm - N/A   Clear
12:35 AM 48.2 °F - 46.4 °F 93% 30.16 in 1.5 mi Calm Calm - N/A   Clear
12:36 AM 48.2 °F - 46.4 °F 93% 30.16 in 1.2 mi Calm Calm - N/A   Clear
12:38 AM 48.2 °F - 48.2 °F 100% 30.16 in 0.8 mi Calm Calm - N/A   Clear
12:39 AM 48.2 °F - 48.2 °F 100% 30.16 in 0.8 mi Calm Calm - N/A   Clear
12:40 AM 48.2 °F - 48.2 °F 100% 30.16 in 0.5 mi Calm Calm - N/A Fog Fog
12:41 AM 48.2 °F - 48.2 °F 100% 30.16 in 0.5 mi Calm Calm - N/A Fog Fog
12:42 AM 48.2 °F - 48.2 °F 100% 30.16 in 0.5 mi Calm Calm - N/A Fog Fog
12:43 AM 48.2 °F - 48.2 °F 100% 30.16 in 0.5 mi Calm Calm - N/A Fog Fog
12:45 AM 48.2 °F - 48.2 °F 100% 30.16 in 0.2 mi Calm Calm - N/A Fog Fog
12:53 AM 48.2 °F - 48.2 °F 100% 30.16 in 0.5 mi Calm Calm - N/A Fog Fog
12:55 AM 48.7 °F - 48.2 °F 98% 30.15 in 0.5 mi Calm Calm - N/A Fog Fog
12:57 AM 48.2 °F - 48.2 °F 100% 30.15 in 0.5 mi Calm Calm - N/A Fog Fog
12:59 AM 48.2 °F - 48.2 °F 100% 30.15 in 0.8 mi Calm Calm - N/A   Clear
1:00 AM 48.2 °F - 48.2 °F 100% 30.15 in 1.0 mi Calm Calm - N/A   Clear
1:01 AM 48.2 °F - 48.2 °F 100% 30.15 in 1.0 mi Calm Calm - N/A   Clear
1:03 AM 48.2 °F - 48.2 °F 100% 30.15 in 1.5 mi Calm Calm - N/A   Clear
1:05 AM 48.2 °F - 46.4 °F 93% 30.15 in 2.0 mi Calm Calm - N/A   Clear
1:06 AM 48.2 °F - 46.4 °F 93% 30.15 in 2.5 mi Calm Calm - N/A   Clear
1:10 AM 48.2 °F - 46.4 °F 93% 30.15 in 2.0 mi Calm Calm - N/A   Clear
1:12 AM 48.2 °F - 46.4 °F 93% 30.15 in 2.0 mi Calm Calm - N/A   Clear
1:14 AM 46.4 °F - 46.4 °F 100% 30.15 in 2.5 mi Calm Calm - N/A   Clear
1:20 AM 46.4 °F - 44.6 °F 93% 30.15 in 2.0 mi Calm Calm - N/A   Clear
1:21 AM 46.4 °F - 44.6 °F 93% 30.15 in 1.5 mi Calm Calm - N/A   Clear
1:22 AM 46.4 °F - 44.6 °F 93% 30.15 in 1.0 mi Calm Calm - N/A   Clear
1:23 AM 46.4 °F - 44.6 °F 93% 30.15 in 0.8 mi Calm Calm - N/A   Clear
1:24 AM 46.4 °F - 44.6 °F 93% 30.15 in 0.8 mi Calm Calm - N/A   Clear
1:25 AM 46.4 °F - 44.6 °F 93% 30.15 in 0.5 mi Calm Calm - N/A Fog Fog
1:27 AM 46.4 °F - 44.6 °F 93% 30.15 in 0.5 mi Calm Calm - N/A Fog Fog
1:28 AM 46.4 °F - 46.4 °F 100% 30.15 in 0.5 mi Calm Calm - N/A Fog Fog
1:29 AM 46.4 °F - 46.4 °F 100% 30.15 in 0.2 mi Calm Calm - N/A Fog Fog
1:30 AM 46.4 °F - 46.4 °F 100% 30.15 in 0.2 mi Calm Calm - N/A Fog Fog
1:33 AM 46.4 °F - 46.4 °F 100% 30.15 in 0.2 mi Calm Calm - N/A Fog Fog
1:34 AM 46.4 °F - 46.4 °F 100% 30.15 in 0.5 mi Calm Calm - N/A Fog Fog
1:36 AM 46.4 °F - 46.4 °F 100% 30.15 in 0.5 mi Calm Calm - N/A Fog Fog
1:37 AM 46.4 °F - 46.4 °F 100% 30.15 in 0.8 mi Calm Calm - N/A   Clear
1:38 AM 46.4 °F - 46.4 °F 100% 30.15 in 0.8 mi Calm Calm - N/A   Clear
1:39 AM 46.4 °F - 46.4 °F 100% 30.15 in 1.0 mi Calm Calm - N/A   Clear
1:40 AM 46.4 °F 45.2 °F 46.4 °F 100% 30.15 in 1.5 mi NNW 3.5 mph - N/A   Clear
1:41 AM 48.2 °F - 46.4 °F 93% 30.15 in 2.0 mi Calm Calm - N/A   Clear
1:42 AM 48.2 °F - 46.4 °F 93% 30.15 in 2.5 mi Calm Calm - N/A   Clear
1:43 AM 48.2 °F - 46.4 °F 93% 30.15 in 3.0 mi Calm Calm - N/A   Clear
1:48 AM 48.2 °F - 48.2 °F 100% 30.15 in 2.5 mi Calm Calm - N/A   Clear
1:49 AM 48.2 °F - 48.2 °F 100% 30.15 in 2.5 mi Calm Calm - N/A   Clear
1:50 AM 48.2 °F - 48.2 °F 100% 30.15 in 2.5 mi Calm Calm - N/A   Clear
1:51 AM 48.2 °F - 48.2 °F 100% 30.15 in 2.5 mi Calm Calm - N/A   Clear
1:53 AM 48.2 °F - 48.2 °F 100% 30.15 in 3.0 mi Calm Calm - N/A   Clear
1:55 AM 48.2 °F - 47.7 °F 98% 30.15 in 3.0 mi Calm Calm - N/A   Clear
1:59 AM 48.2 °F - 48.2 °F 100% 30.15 in 2.5 mi Calm Calm - N/A   Clear
2:00 AM 48.2 °F - 48.2 °F 100% 30.15 in 2.0 mi Calm Calm - N/A   Clear
2:04 AM 48.2 °F - 48.2 °F 100% 30.15 in 1.5 mi Calm Calm - N/A   Clear
2:05 AM 48.2 °F - 48.2 °F 100% 30.15 in 1.2 mi Calm Calm - N/A   Clear
2:06 AM 48.2 °F - 48.2 °F 100% 30.15 in 1.0 mi Calm Calm - N/A   Clear
2:07 AM 48.2 °F - 48.2 °F 100% 30.15 in 0.8 mi Calm Calm - N/A   Clear
2:15 AM 48.2 °F - 48.2 °F 100% 30.15 in 0.8 mi Calm Calm - N/A   Clear
2:16 AM 48.2 °F - 48.2 °F 100% 30.14 in 1.0 mi Calm Calm - N/A   Clear
2:17 AM 48.2 °F - 48.2 °F 100% 30.14 in 1.2 mi Calm Calm - N/A   Clear
2:18 AM 48.2 °F - 46.4 °F 93% 30.14 in 1.5 mi Calm Calm - N/A   Clear
2:19 AM 48.2 °F - 46.4 °F 93% 30.14 in 2.0 mi Calm Calm - N/A   Clear
2:20 AM 48.2 °F - 46.4 °F 93% 30.14 in 2.5 mi Calm Calm - N/A   Clear
2:21 AM 48.2 °F - 46.4 °F 93% 30.14 in 3.0 mi Calm Calm - N/A   Clear
2:31 AM 48.2 °F - 46.4 °F 93% 30.15 in 2.5 mi Calm Calm - N/A   Clear
2:32 AM 48.2 °F - 46.4 °F 93% 30.15 in 2.5 mi Calm Calm - N/A   Clear
2:39 AM 48.2 °F - 46.4 °F 93% 30.15 in 3.0 mi Calm Calm - N/A   Clear
2:43 AM 48.2 °F - 46.4 °F 93% 30.15 in 3.0 mi Calm Calm - N/A   Clear
2:47 AM 48.2 °F - 46.4 °F 93% 30.15 in 2.5 mi Calm Calm - N/A   Clear
2:48 AM 48.2 °F - 46.4 °F 93% 30.15 in 1.8 mi Calm Calm - N/A   Clear
2:49 AM 48.2 °F - 46.4 °F 93% 30.15 in 1.5 mi Calm Calm - N/A   Clear
2:50 AM 48.2 °F - 46.4 °F 93% 30.15 in 1.2 mi Calm Calm - N/A   Clear
2:53 AM 46.4 °F - 46.4 °F 100% 30.15 in 1.0 mi Calm Calm - N/A   Clear
2:54 AM 46.4 °F - 46.4 °F 100% 30.15 in 1.0 mi Calm Calm - N/A   Clear
2:55 AM 47.1 °F - 46.6 °F 98% 30.15 in 0.8 mi Calm Calm - N/A   Clear
2:59 AM 46.4 °F - 46.4 °F 100% 30.15 in 0.5 mi Calm Calm - N/A Fog Fog
3:02 AM 46.4 °F - 46.4 °F 100% 30.15 in 0.5 mi Calm Calm - N/A Fog Fog
3:04 AM 46.4 °F - 46.4 °F 100% 30.15 in 0.5 mi Calm Calm - N/A Fog Fog
3:08 AM 48.2 °F - 46.4 °F 93% 30.15 in 0.5 mi Calm Calm - N/A Fog Fog
3:10 AM 46.4 °F - 46.4 °F 100% 30.15 in 0.8 mi Calm Calm - N/A   Clear
3:14 AM 46.4 °F - 46.4 °F 100% 30.15 in 1.0 mi Calm Calm - N/A   Clear
3:20 AM 48.2 °F - 46.4 °F 93% 30.15 in 1.0 mi Calm Calm - N/A   Clear
3:22 AM 48.2 °F - 46.4 °F 93% 30.15 in 1.2 mi Calm Calm - N/A   Clear
3:23 AM 46.4 °F - 46.4 °F 100% 30.15 in 1.5 mi Calm Calm - N/A   Clear
3:25 AM 46.4 °F - 46.4 °F 100% 30.15 in 1.8 mi Calm Calm - N/A   Clear
3:26 AM 46.4 °F - 46.4 °F 100% 30.15 in 2.5 mi Calm Calm - N/A   Clear
3:27 AM 46.4 °F - 46.4 °F 100% 30.15 in 3.0 mi Calm Calm - N/A   Clear
3:29 AM 46.4 °F - 46.4 °F 100% 30.15 in 2.5 mi Calm Calm - N/A   Clear
3:30 AM 46.4 °F - 46.4 °F 100% 30.15 in 1.8 mi Calm Calm - N/A   Clear
3:31 AM 46.4 °F - 46.4 °F 100% 30.15 in 1.2 mi Calm Calm - N/A   Clear
3:33 AM 46.4 °F - 46.4 °F 100% 30.15 in 0.8 mi Calm Calm - N/A   Clear
3:34 AM 46.4 °F - 46.4 °F 100% 30.15 in 0.8 mi Calm Calm - N/A   Clear
3:36 AM 46.4 °F - 46.4 °F 100% 30.15 in 0.8 mi Calm Calm - N/A   Clear
3:37 AM 46.4 °F - 46.4 °F 100% 30.15 in 0.8 mi Calm Calm - N/A   Clear
3:40 AM 46.4 °F - 46.4 °F 100% 30.16 in 1.0 mi Calm Calm - N/A   Clear
3:41 AM 46.4 °F - 46.4 °F 100% 30.16 in 1.0 mi Calm Calm - N/A   Clear
3:42 AM 46.4 °F - 46.4 °F 100% 30.16 in 1.5 mi Calm Calm - N/A   Clear
3:43 AM 46.4 °F - 46.4 °F 100% 30.15 in 2.0 mi Calm Calm - N/A   Clear
3:44 AM 46.4 °F - 46.4 °F 100% 30.15 in 3.0 mi Calm Calm - N/A   Clear
3:55 AM 46.9 °F - 46.6 °F 99% 30.15 in 4.0 mi Calm Calm - N/A   Clear
4:15 AM 46.4 °F - 46.4 °F 100% 30.15 in 4.0 mi Calm Calm - N/A   Clear
4:17 AM 46.4 °F - 46.4 °F 100% 30.15 in 5.0 mi Calm Calm - N/A   Clear
4:29 AM 46.4 °F 45.2 °F 46.4 °F 100% 30.15 in 5.0 mi NNW 3.5 mph - N/A   Clear
4:34 AM 46.4 °F - 46.4 °F 100% 30.15 in 1.8 mi Calm Calm - N/A   Clear
4:35 AM 46.4 °F - 46.4 °F 100% 30.15 in 1.0 mi Calm Calm - N/A   Clear
4:36 AM 46.4 °F - 46.4 °F 100% 30.16 in 0.8 mi Calm Calm - N/A   Clear
4:38 AM 46.4 °F - 46.4 °F 100% 30.16 in 0.8 mi Calm Calm - N/A   Clear
4:39 AM 46.4 °F - 46.4 °F 100% 30.15 in 0.5 mi Calm Calm - N/A Fog Fog
4:42 AM 46.4 °F - 46.4 °F 100% 30.15 in 0.5 mi Calm Calm - N/A Fog Fog
4:44 AM 46.4 °F - 46.4 °F 100% 30.15 in 0.5 mi Calm Calm - N/A Fog Fog
4:45 AM 46.4 °F - 46.4 °F 100% 30.15 in 0.8 mi Calm Calm - N/A   Clear
4:47 AM 46.4 °F - 46.4 °F 100% 30.15 in 1.0 mi Calm Calm - N/A   Clear
4:55 AM 46.8 °F - 46.2 °F 98% 30.15 in 1.0 mi Calm Calm - N/A   Clear
4:57 AM 46.4 °F - 46.4 °F 100% 30.15 in 0.8 mi Calm Calm - N/A   Clear
4:59 AM 46.4 °F - 46.4 °F 100% 30.15 in 1.0 mi Calm Calm - N/A   Clear
5:00 AM 46.4 °F - 46.4 °F 100% 30.15 in 1.0 mi Calm Calm - N/A   Clear
5:03 AM 46.4 °F - 46.4 °F 100% 30.15 in 1.5 mi Calm Calm - N/A   Clear
5:04 AM 46.4 °F - 46.4 °F 100% 30.15 in 1.8 mi Calm Calm - N/A   Clear
5:05 AM 46.4 °F - 46.4 °F 100% 30.15 in 2.0 mi Calm Calm - N/A   Clear
5:07 AM 46.4 °F 45.2 °F 46.4 °F 100% 30.16 in 1.8 mi NNW 3.5 mph - N/A   Clear
5:12 AM 46.4 °F 45.2 °F 46.4 °F 100% 30.15 in 1.5 mi North 3.5 mph - N/A   Clear
5:16 AM 46.4 °F 44.3 °F 46.4 °F 100% 30.15 in 1.8 mi North 4.6 mph - N/A   Clear
5:17 AM 46.4 °F 44.3 °F 46.4 °F 100% 30.15 in 2.0 mi North 4.6 mph - N/A   Clear
5:19 AM 46.4 °F 44.3 °F 46.4 °F 100% 30.15 in 2.5 mi NNW 4.6 mph - N/A   Clear
5:21 AM 46.4 °F 44.3 °F 46.4 °F 100% 30.16 in 2.5 mi NNW 4.6 mph - N/A   Clear
5:23 AM 46.4 °F 43.5 °F 46.4 °F 100% 30.16 in 3.0 mi NNW 5.8 mph - N/A   Clear
5:31 AM 46.4 °F 44.3 °F 46.4 °F 100% 30.16 in 8.0 mi NNW 4.6 mph - N/A   Clear
5:55 AM 46.6 °F - 46.0 °F 98% 30.16 in 10.0 mi NNW 5.8 mph - N/A   Clear
6:55 AM 42.8 °F 40.1 °F 41.7 °F 96% 30.17 in 10.0 mi NNE 4.6 mph - N/A   Clear
7:55 AM 45.3 °F 43.0 °F 44.6 °F 97% 30.20 in 10.0 mi North 4.6 mph - N/A   Clear
8:55 AM 50.5 °F - 44.2 °F 79% 30.22 in 10.0 mi North 5.8 mph - N/A   Clear
9:55 AM 56.5 °F - 42.6 °F 60% 30.23 in 10.0 mi North 5.8 mph - N/A   Clear
10:55 AM 61.2 °F - 42.8 °F 51% 30.21 in 10.0 mi NNE 6.9 mph - N/A   Clear
11:55 AM 65.1 °F - 42.1 °F 43% 30.19 in 10.0 mi North 12.7 mph - N/A   Clear
12:55 PM 66.6 °F - 41.7 °F 40% 30.16 in 10.0 mi NNE 9.2 mph - N/A   Clear
1:55 PM 66.2 °F - 41.5 °F 41% 30.15 in 10.0 mi NE 6.9 mph - N/A   Clear
2:55 PM 65.7 °F - 42.6 °F 43% 30.15 in 10.0 mi NNE 5.8 mph - N/A   Clear
3:55 PM 65.3 °F - 43.3 °F 45% 30.15 in 10.0 mi North 10.4 mph - N/A   Clear
4:55 PM 63.0 °F - 42.6 °F 47% 30.17 in 10.0 mi North 5.8 mph - N/A   Clear
5:55 PM 59.5 °F - 43.5 °F 55% 30.19 in 10.0 mi NNW 4.6 mph - N/A   Clear
6:55 PM 55.2 °F - 47.1 °F 74% 30.20 in 10.0 mi Calm Calm - N/A   Clear
7:42 PM 55.4 °F - 44.6 °F 67% 30.21 in 4.0 mi NNE 3.5 mph - N/A   Haze
7:43 PM 53.6 °F - 46.4 °F 77% 30.21 in 4.0 mi NNE 3.5 mph - N/A   Haze
7:45 PM 53.6 °F - 46.4 °F 77% 30.21 in 4.0 mi NNE 4.6 mph - N/A   Haze
7:48 PM 53.6 °F - 44.6 °F 72% 30.21 in 5.0 mi NNE 4.6 mph - N/A   Haze
7:55 PM 53.8 °F - 45.3 °F 73% 30.21 in 7.0 mi North 4.6 mph - N/A   Clear
8:37 PM 55.4 °F - 44.6 °F 67% 30.22 in 7.0 mi NNE 5.8 mph - N/A   Clear
8:55 PM 54.1 °F - 44.4 °F 70% 30.22 in 6.0 mi NNE 3.5 mph - N/A   Haze
9:38 PM 51.8 °F - 44.6 °F 76% 30.22 in 5.0 mi NNE 4.6 mph - N/A   Haze
9:40 PM 51.8 °F - 44.6 °F 76% 30.22 in 5.0 mi NNE 4.6 mph - N/A   Haze
9:50 PM 53.6 °F - 44.6 °F 72% 30.22 in 6.0 mi NE 4.6 mph - N/A   Haze
9:51 PM 53.6 °F - 44.6 °F 72% 30.22 in 6.0 mi NE 4.6 mph - N/A   Haze
9:55 PM 52.3 °F - 44.6 °F 75% 30.22 in 8.0 mi NE 4.6 mph - N/A   Clear
10:55 PM 50.0 °F - 43.3 °F 78% 30.22 in 10.0 mi NNE 5.8 mph - N/A   Clear
11:55 PM 48.6 °F - 41.9 °F 78% 30.22 in 10.0 mi NNE 4.6 mph - N/A   Clear